Location: ????????
(55.4000°N, 39.1167°E)
Time: 01:39:11
(UTC+00:00)

Cosmos 1300 - Pass Details

Date: 19 May 2025
Orbit: 394 x 397 km, 82.5° (Epoch: 14 June)

Event Time Altitude Azimuth Distance (km) Brightness Sun altitude
Rises 22:14:17 0° 335° (NNW) 2,322 6.9 -13.7°
Maximum altitude 22:18:54 17° 272° (W) 1,094 4.2 -13.6°
Enters shadow 22:19:58 15° 247° (WSW) 1,191 4.2 -13.6°
